| time (UTC) | temp F | wind direction | speed MPH | gust MPH | rain 1hr in | rain 24hr in | rain mn in | humidity % | barometer mb |
| 20260831231002 | 83 | 34 | 0.0 | 0.0 | 0.00 | 0.00 | 0.00 | 80 | 1018.0 |
| 20260831230456 | 84 | 34 | 0.0 | 0.0 | 0.00 | 0.00 | 0.00 | 80 | 1018.1 |
| 20260831225948 | 84 | 34 | 0.0 | 0.0 | 0.00 | 0.00 | 0.00 | 79 | 1018.1 |
| 20260831225443 | 84 | 34 | 0.0 | 0.0 | 0.00 | 0.00 | 0.00 | 79 | 1018.2 |
| 20260831224938 | 84 | 34 | 0.0 | 0.0 | 0.00 | 0.00 | 0.00 | 79 | 1018.2 |
| 20260831224918 | 84 | 34 | 0.0 | 0.0 | 0.00 | 0.00 | 0.00 | 79 | 1018.2 |
| 20260831223925 | 84 | 34 | 0.0 | 0.0 | 0.00 | 0.00 | 0.00 | 78 | 1018.3 |
| 20260831223420 | 84 | 34 | 0.0 | 0.0 | 0.00 | 0.00 | 0.00 | 78 | 1018.3 |
| 20260831222913 | 84 | 34 | 0.0 | 0.0 | 0.00 | 0.00 | 0.00 | 77 | 1018.3 |
| 20260831222407 | 85 | 34 | 0.0 | 0.0 | 0.00 | 0.00 | 0.00 | 76 | 1018.4 |
| 20260831221901 | 85 | 34 | 0.0 | 0.0 | 0.00 | 0.00 | 0.00 | 76 | 1018.4 |
| 20260831221355 | 85 | 34 | 0.0 | 0.0 | 0.00 | 0.00 | 0.00 | 75 | 1018.5 |
| 20260831220849 | 85 | 34 | 0.0 | 1.0 | 0.00 | 0.00 | 0.00 | 76 | 1018.5 |
| 20260831220343 | 85 | 34 | 0.0 | 1.0 | 0.00 | 0.00 | 0.00 | 75 | 1018.6 |
| 20260831215839 | 85 | 34 | 0.0 | 1.0 | 0.00 | 0.00 | 0.00 | 75 | 1018.6 |
| 20260831215335 | 85 | 34 | 0.0 | 1.0 | 0.00 | 0.00 | 0.00 | 76 | 1018.6 |
| 20260831214826 | 85 | 34 | 0.0 | 1.0 | 0.00 | 0.00 | 0.00 | 75 | 1018.4 |
| 20260831214320 | 86 | 34 | 0.0 | 1.0 | 0.00 | 0.00 | 0.00 | 75 | 1018.4 |
| 20260831213813 | 85 | 34 | 0.0 | 0.0 | 0.00 | 0.00 | 0.00 | 74 | 1018.4 |
| 20260831213308 | 86 | 34 | 0.0 | 0.0 | 0.00 | 0.00 | 0.00 | 74 | 1018.4 |
| 20260831212803 | 86 | 34 | 0.0 | 0.0 | 0.00 | 0.00 | 0.00 | 76 | 1018.3 |
| 20260831212306 | 86 | 34 | 0.0 | 1.0 | 0.00 | 0.00 | 0.00 | 75 | 1018.3 |
| 20260831212023 | 86 | 34 | 0.0 | 1.0 | 0.00 | 0.00 | 0.00 | 75 | 1018.3 |
| 20260831211305 | 86 | 350 | 0.0 | 1.0 | 0.00 | 0.00 | 0.00 | 74 | 1018.3 |
| 20260831210803 | 86 | 350 | 0.0 | 1.0 | 0.00 | 0.00 | 0.00 | 73 | 1018.3 |
| 20260831210300 | 86 | 350 | 0.0 | 0.0 | 0.00 | 0.00 | 0.00 | 74 | 1018.3 |
| 20260831205759 | 85 | 350 | 0.0 | 0.0 | 0.00 | 0.00 | 0.00 | 74 | 1018.3 |
| 20260831205300 | 85 | 350 | 0.0 | 0.0 | 0.00 | 0.00 | 0.00 | 74 | 1018.3 |
| 20260831204758 | 85 | 350 | 0.0 | 0.0 | 0.00 | 0.00 | 0.00 | 73 | 1018.3 |
| 20260831204259 | 85 | 350 | 0.0 | 1.0 | 0.00 | 0.00 | 0.00 | 72 | 1018.2 |
| 20260831203759 | 86 | 350 | 0.0 | 1.0 | 0.00 | 0.00 | 0.00 | 72 | 1018.3 |
| 20260831203747 | 86 | 67 | 0.0 | 1.0 | 0.00 | 0.00 | 0.00 | 73 | 1018.4 |
| 20260831203020 | 86 | 67 | 0.0 | 0.0 | 0.00 | 0.00 | 0.00 | 72 | 1018.3 |
| 20260831202252 | 86 | 344 | 0.0 | 1.0 | 0.00 | 0.00 | 0.00 | 70 | 1018.4 |
| 20260831202017 | 86 | 344 | 0.0 | 1.0 | 0.00 | 0.00 | 0.00 | 71 | 1018.4 |
| 20260831201247 | 86 | 344 | 0.0 | 1.0 | 0.00 | 0.00 | 0.00 | 71 | 1018.4 |
| 20260831200747 | 86 | 56 | 0.0 | 1.0 | 0.00 | 0.00 | 0.00 | 72 | 1018.3 |
| 20260831200731 | 86 | 56 | 0.0 | 0.0 | 0.00 | 0.00 | 0.00 | 69 | 1018.4 |
| 20260831195742 | 86 | 56 | 0.0 | 1.0 | 0.00 | 0.00 | 0.00 | 70 | 1018.4 |
| 20260831195239 | 86 | 56 | 0.0 | 2.0 | 0.00 | 0.00 | 0.00 | 72 | 1018.3 |
| 20260831194947 | 86 | 102 | 1.0 | 2.0 | 0.00 | 0.00 | 0.00 | 70 | 1018.4 |
| 20260831194829 | 86 | 56 | 1.0 | 2.0 | 0.00 | 0.00 | 0.00 | 71 | 1018.3 |
| 20260831193727 | 86 | 65 | 0.0 | 2.0 | 0.00 | 0.00 | 0.00 | 69 | 1018.5 |
| 20260831193222 | 86 | 44 | 0.0 | 1.0 | 0.00 | 0.00 | 0.00 | 70 | 1018.6 |
| 20260831192717 | 87 | 355 | 0.0 | 1.0 | 0.00 | 0.00 | 0.00 | 68 | 1018.6 |
| 20260831192209 | 86 | 312 | 0.0 | 2.0 | 0.00 | 0.00 | 0.00 | 67 | 1018.6 |
| 20260831191704 | 87 | 312 | 1.0 | 2.0 | 0.00 | 0.00 | 0.00 | 66 | 1018.7 |
| 20260831191423 | 87 | 53 | 1.0 | 2.0 | 0.00 | 0.00 | 0.00 | 67 | 1018.7 |
| 20260831190652 | 87 | 49 | 1.0 | 3.0 | 0.00 | 0.00 | 0.00 | 69 | 1018.8 |
| 20260831190410 | 87 | 88 | 1.0 | 3.0 | 0.00 | 0.00 | 0.00 | 69 | 1018.9 |
| 20260831185639 | 87 | 109 | 1.0 | 2.0 | 0.00 | 0.00 | 0.00 | 69 | 1019.0 |
| 20260831185137 | 87 | 119 | 0.0 | 2.0 | 0.00 | 0.00 | 0.00 | 68 | 1019.0 |
| 20260831184637 | 87 | 81 | 0.0 | 2.0 | 0.00 | 0.00 | 0.00 | 70 | 1018.9 |
| 20260831184137 | 87 | 81 | 1.0 | 3.0 | 0.00 | 0.00 | 0.00 | 69 | 1018.9 |
| 20260831183638 | 87 | 97 | 1.0 | 3.0 | 0.00 | 0.00 | 0.00 | 69 | 1018.9 |
| 20260831183136 | 87 | 119 | 0.0 | 2.0 | 0.00 | 0.00 | 0.00 | 68 | 1018.9 |
| 20260831182634 | 86 | 87 | 0.0 | 1.0 | 0.00 | 0.00 | 0.00 | 70 | 1018.9 |
| 20260831182131 | 87 | 87 | 0.0 | 2.0 | 0.00 | 0.00 | 0.00 | 66 | 1018.8 |
| 20260831181633 | 87 | 87 | 1.0 | 2.0 | 0.00 | 0.00 | 0.00 | 65 | 1018.8 |
| 20260831181130 | 88 | 88 | 1.0 | 3.0 | 0.00 | 0.00 | 0.00 | 63 | 1018.9 |
| 20260831180630 | 88 | 88 | 1.0 | 3.0 | 0.00 | 0.00 | 0.00 | 62 | 1019.0 |
| 20260831180129 | 88 | 90 | 0.0 | 2.0 | 0.00 | 0.00 | 0.00 | 61 | 1019.0 |
| 20260831175629 | 89 | 306 | 1.0 | 4.0 | 0.00 | 0.00 | 0.00 | 61 | 1019.1 |
| 20260831175130 | 90 | 44 | 1.0 | 4.0 | 0.00 | 0.00 | 0.00 | 58 | 1019.0 |
| 20260831174627 | 89 | 261 | 1.0 | 3.0 | 0.00 | 0.00 | 0.00 | 63 | 1019.0 |
| 20260831174127 | 89 | 244 | 1.0 | 3.0 | 0.00 | 0.00 | 0.00 | 64 | 1018.9 |
| 20260831173856 | 90 | 300 | 1.0 | 3.0 | 0.00 | 0.00 | 0.00 | 58 | 1019.0 |
| 20260831173345 | 91 | 78 | 1.0 | 3.0 | 0.00 | 0.00 | 0.00 | 58 | 1019.0 |
| 20260831172628 | 91 | 130 | 1.0 | 3.0 | 0.00 | 0.00 | 0.00 | 59 | 1019.0 |
| 20260831172122 | 91 | 180 | 1.0 | 2.0 | 0.00 | 0.00 | 0.00 | 61 | 1019.1 |
| 20260831171615 | 89 | 179 | 1.0 | 3.0 | 0.00 | 0.00 | 0.00 | 64 | 1019.2 |
| 20260831171114 | 88 | 267 | 1.0 | 3.0 | 0.00 | 0.00 | 0.00 | 65 | 1019.2 |
| 20260831170614 | 88 | 16 | 1.0 | 3.0 | 0.00 | 0.00 | 0.00 | 61 | 1019.3 |
| 20260831170117 | 89 | 82 | 2.0 | 4.0 | 0.00 | 0.00 | 0.00 | 62 | 1019.4 |
| 20260831165824 | 87 | 114 | 1.0 | 4.0 | 0.00 | 0.00 | 0.00 | 67 | 1019.6 |
| 20260831165711 | 87 | 297 | 2.0 | 4.0 | 0.00 | 0.00 | 0.00 | 63 | 1019.5 |
| 20260831164616 | 88 | 63 | 2.0 | 5.0 | 0.00 | 0.00 | 0.00 | 67 | 1019.6 |
| 20260831164118 | 88 | 298 | 1.0 | 5.0 | 0.00 | 0.00 | 0.00 | 66 | 1019.6 |
| 20260831163845 | 87 | 92 | 1.0 | 4.0 | 0.00 | 0.00 | 0.00 | 68 | 1019.6 |
| 20260831163118 | 86 | 67 | 2.0 | 6.0 | 0.00 | 0.00 | 0.00 | 70 | 1019.7 |
| 20260831162823 | 87 | 71 | 1.0 | 4.0 | 0.00 | 0.00 | 0.00 | 67 | 1019.8 |
| 20260831162705 | 87 | 90 | 2.0 | 6.0 | 0.00 | 0.00 | 0.00 | 67 | 1019.8 |
| 20260831161613 | 87 | 84 | 2.0 | 3.0 | 0.00 | 0.00 | 0.00 | 68 | 1019.8 |
| 20260831161111 | 86 | 71 | 1.0 | 3.0 | 0.00 | 0.00 | 0.00 | 69 | 1019.9 |
| 20260831160613 | 87 | 286 | 2.0 | 7.0 | 0.00 | 0.00 | 0.00 | 70 | 1019.9 |
| 20260831160110 | 85 | 65 | 2.0 | 7.0 | 0.00 | 0.00 | 0.00 | 69 | 1019.9 |
| 20260831155611 | 85 | 67 | 1.0 | 3.0 | 0.00 | 0.00 | 0.00 | 69 | 1019.8 |
| 20260831155111 | 85 | 28 | 1.0 | 7.0 | 0.00 | 0.00 | 0.00 | 70 | 1019.8 |
| 20260831154612 | 85 | 325 | 1.0 | 7.0 | 0.00 | 0.00 | 0.00 | 70 | 1019.7 |
| 20260831154113 | 84 | 46 | 1.0 | 3.0 | 0.00 | 0.00 | 0.00 | 73 | 1019.7 |
| 20260831153612 | 84 | 137 | 1.0 | 3.0 | 0.00 | 0.00 | 0.00 | 73 | 1019.6 |
| 20260831153338 | 83 | 96 | 2.0 | 4.0 | 0.00 | 0.00 | 0.00 | 74 | 1019.6 |
| 20260831152611 | 82 | 106 | 1.0 | 4.0 | 0.00 | 0.00 | 0.00 | 75 | 1019.5 |
| 20260831152111 | 82 | 84 | 1.0 | 5.0 | 0.00 | 0.00 | 0.00 | 77 | 1019.7 |
| 20260831151611 | 82 | 317 | 1.0 | 5.0 | 0.00 | 0.00 | 0.00 | 77 | 1019.7 |
| 20260831151332 | 81 | 119 | 1.0 | 3.0 | 0.00 | 0.00 | 0.00 | 77 | 1019.6 |
| 20260831150833 | 82 | 133 | 1.0 | 3.0 | 0.00 | 0.00 | 0.00 | 78 | 1019.7 |
| 20260831150111 | 81 | 273 | 1.0 | 3.0 | 0.00 | 0.00 | 0.00 | 79 | 1019.7 |
| 20260831145605 | 81 | 104 | 1.0 | 3.0 | 0.00 | 0.00 | 0.00 | 79 | 1019.7 |
| 20260831145059 | 81 | 355 | 1.0 | 4.0 | 0.00 | 0.00 | 0.00 | 79 | 1019.7 |
| 20260831144553 | 80 | 298 | 1.0 | 4.0 | 0.00 | 0.00 | 0.00 | 79 | 1019.6 |
| 20260831144315 | 79 | 283 | 0.0 | 3.0 | 0.00 | 0.00 | 0.00 | 82 | 1019.7 |
| 20260831143546 | 79 | 67 | 0.0 | 3.0 | 0.00 | 0.00 | 0.00 | 82 | 1019.7 |
| 20260831143047 | 79 | 9 | 1.0 | 3.0 | 0.00 | 0.00 | 0.00 | 82 | 1019.7 |
| 20260831142544 | 78 | 74 | 1.0 | 4.0 | 0.00 | 0.00 | 0.00 | 83 | 1019.7 |
| 20260831142044 | 78 | 99 | 1.0 | 4.0 | 0.00 | 0.00 | 0.00 | 83 | 1019.6 |
| 20260831141544 | 78 | 98 | 0.0 | 6.0 | 0.00 | 0.00 | 0.00 | 83 | 1019.6 |
| 20260831141045 | 78 | 113 | 0.0 | 6.0 | 0.00 | 0.00 | 0.00 | 83 | 1019.6 |
| 20260831140545 | 78 | 65 | 0.0 | 4.0 | 0.00 | 0.00 | 0.00 | 83 | 1019.5 |
| 20260831140045 | 78 | 96 | 0.0 | 3.0 | 0.00 | 0.00 | 0.00 | 84 | 1019.3 |
| 20260831135807 | 78 | 107 | 1.0 | 5.0 | 0.00 | 0.00 | 0.00 | 83 | 1019.4 |
| 20260831135306 | 78 | 154 | 1.0 | 7.0 | 0.00 | 0.00 | 0.00 | 83 | 1019.5 |
| 20260831134544 | 77 | 300 | 1.0 | 7.0 | 0.00 | 0.00 | 0.00 | 84 | 1019.5 |
| 20260831134043 | 77 | 85 | 1.0 | 4.0 | 0.00 | 0.00 | 0.00 | 85 | 1019.6 |
| 20260831133544 | 76 | 107 | 1.0 | 4.0 | 0.00 | 0.00 | 0.00 | 86 | 1019.5 |
| 20260831133304 | 76 | 111 | 1.0 | 3.0 | 0.00 | 0.00 | 0.00 | 88 | 1019.5 |
| 20260831132542 | 75 | 114 | 1.0 | 6.0 | 0.00 | 0.00 | 0.00 | 91 | 1019.6 |
| 20260831132041 | 74 | 96 | 1.0 | 6.0 | 0.00 | 0.00 | 0.00 | 94 | 1019.5 |
| 20260831131534 | 73 | 109 | 1.0 | 4.0 | 0.00 | 0.00 | 0.00 | 95 | 1019.6 |
| 20260831131253 | 72 | 51 | 1.0 | 3.0 | 0.00 | 0.00 | 0.00 | 95 | 1019.7 |
| 20260831130521 | 72 | 101 | 1.0 | 3.0 | 0.00 | 0.00 | 0.00 | 95 | 1019.7 |
| 20260831130016 | 72 | 80 | 0.0 | 3.0 | 0.00 | 0.00 | 0.00 | 95 | 1019.8 |
| 20260831125509 | 72 | 44 | 1.0 | 3.0 | 0.00 | 0.00 | 0.00 | 95 | 1019.7 |
| 20260831125003 | 71 | 55 | 1.0 | 3.0 | 0.00 | 0.00 | 0.00 | 95 | 1019.7 |
| 20260831124720 | 71 | 55 | 0.0 | 2.0 | 0.00 | 0.00 | 0.00 | 95 | 1019.6 |
| 20260831123951 | 71 | 302 | 0.0 | 2.0 | 0.00 | 0.00 | 0.00 | 95 | 1019.7 |
| 20260831123445 | 71 | 30 | 0.0 | 2.0 | 0.00 | 0.00 | 0.00 | 95 | 1019.6 |
| 20260831122939 | 70 | 80 | 0.0 | 1.0 | 0.00 | 0.00 | 0.00 | 94 | 1019.6 |
| 20260831122433 | 70 | 57 | 0.0 | 1.0 | 0.00 | 0.00 | 0.00 | 94 | 1019.6 |
| 20260831121927 | 70 | 57 | 0.0 | 2.0 | 0.00 | 0.00 | 0.00 | 94 | 1019.5 |
| 20260831121908 | 70 | 68 | 0.0 | 3.0 | 0.00 | 0.00 | 0.00 | 94 | 1019.5 |
| 20260831120914 | 70 | 88 | 0.0 | 3.0 | 0.00 | 0.00 | 0.00 | 94 | 1019.6 |
| 20260831120409 | 70 | 48 | 0.0 | 1.0 | 0.00 | 0.00 | 0.00 | 94 | 1019.5 |
| 20260831115903 | 70 | 48 | 0.0 | 1.0 | 0.00 | 0.00 | 0.00 | 94 | 1019.5 |
| 20260831115357 | 70 | 65 | 0.0 | 1.0 | 0.00 | 0.00 | 0.00 | 94 | 1019.5 |
| 20260831114851 | 69 | 65 | 0.0 | 1.0 | 0.00 | 0.00 | 0.00 | 94 | 1019.4 |
| 20260831114830 | 69 | 65 | 0.0 | 1.0 | 0.00 | 0.00 | 0.00 | 94 | 1019.3 |
| 20260831113839 | 69 | 65 | 0.0 | 1.0 | 0.00 | 0.00 | 0.00 | 94 | 1019.4 |
| 20260831113333 | 69 | 65 | 0.0 | 2.0 | 0.00 | 0.00 | 0.00 | 94 | 1019.4 |
| 20260831112828 | 69 | 5 | 0.0 | 2.0 | 0.00 | 0.00 | 0.00 | 93 | 1019.4 |
| 20260831112321 | 69 | 243 | 0.0 | 1.0 | 0.00 | 0.00 | 0.00 | 93 | 1019.3 |
| 20260831111814 | 69 | 243 | 0.0 | 0.0 | 0.00 | 0.00 | 0.00 | 93 | 1019.1 |
| 20260831111309 | 70 | 243 | 0.0 | 0.0 | 0.00 | 0.00 | 0.00 | 93 | 1019.1 |
| 20260831110803 | 70 | 243 | 0.0 | 0.0 | 0.00 | 0.00 | 0.00 | 93 | 1018.9 |
| 20260831110257 | 70 | 243 | 0.0 | 1.0 | 0.00 | 0.00 | 0.00 | 93 | 1018.9 |
| 20260831110021 | 70 | 243 | 0.0 | 1.0 | 0.00 | 0.00 | 0.00 | 93 | 1018.8 |
| 20260831105245 | 70 | 243 | 0.0 | 1.0 | 0.00 | 0.00 | 0.00 | 93 | 1018.7 |
| 20260831104739 | 70 | 243 | 0.0 | 0.0 | 0.00 | 0.00 | 0.00 | 93 | 1018.6 |
| 20260831104233 | 70 | 243 | 0.0 | 0.0 | 0.00 | 0.00 | 0.00 | 93 | 1018.5 |
| 20260831103728 | 70 | 243 | 0.0 | 0.0 | 0.00 | 0.00 | 0.00 | 93 | 1018.5 |
| 20260831103222 | 70 | 243 | 0.0 | 0.0 | 0.00 | 0.00 | 0.00 | 93 | 1018.5 |
| 20260831102909 | 70 | 243 | 0.0 | 0.0 | 0.00 | 0.00 | 0.00 | 93 | 1018.5 |
| 20260831102756 | 70 | 243 | 0.0 | 0.0 | 0.00 | 0.00 | 0.00 | 93 | 1018.4 |
| 20260831101920 | 70 | 243 | 0.0 | 0.0 | 0.00 | 0.00 | 0.00 | 93 | 1018.5 |
| 20260831101157 | 70 | 243 | 0.0 | 0.0 | 0.00 | 0.00 | 0.00 | 93 | 1018.5 |
| 20260831100652 | 70 | 243 | 0.0 | 1.0 | 0.00 | 0.00 | 0.00 | 93 | 1018.5 |
| 20260831100145 | 70 | 243 | 0.0 | 1.0 | 0.00 | 0.00 | 0.00 | 93 | 1018.6 |
| 20260831095640 | 70 | 221 | 0.0 | 0.0 | 0.00 | 0.00 | 0.00 | 93 | 1018.6 |
| 20260831095134 | 70 | 221 | 0.0 | 0.0 | 0.00 | 0.00 | 0.00 | 93 | 1018.6 |
| 20260831094627 | 70 | 221 | 0.0 | 1.0 | 0.00 | 0.00 | 0.00 | 93 | 1018.6 |
| 20260831094122 | 70 | 221 | 0.0 | 1.0 | 0.00 | 0.00 | 0.00 | 93 | 1018.5 |
| 20260831093616 | 70 | 221 | 0.0 | 1.0 | 0.00 | 0.00 | 0.00 | 93 | 1018.4 |
| 20260831093109 | 70 | 221 | 0.0 | 0.0 | 0.00 | 0.00 | 0.00 | 93 | 1018.3 |
| 20260831092828 | 70 | 221 | 0.0 | 0.0 | 0.00 | 0.00 | 0.00 | 93 | 1018.4 |
| 20260831092146 | 70 | 221 | 0.0 | 0.0 | 0.00 | 0.00 | 0.00 | 93 | 1018.4 |
| 20260831092104 | 70 | 221 | 0.0 | 0.0 | 0.00 | 0.00 | 0.00 | 93 | 1018.4 |
| 20260831091829 | 70 | 221 | 0.0 | 0.0 | 0.00 | 0.00 | 0.00 | 93 | 1018.3 |
| 20260831090602 | 70 | 221 | 0.0 | 0.0 | 0.00 | 0.00 | 0.00 | 93 | 1018.2 |
| 20260831090104 | 70 | 221 | 0.0 | 0.0 | 0.00 | 0.00 | 0.00 | 92 | 1018.3 |
| 20260831085600 | 70 | 221 | 0.0 | 0.0 | 0.00 | 0.00 | 0.00 | 92 | 1018.3 |
| 20260831085059 | 70 | 221 | 0.0 | 0.0 | 0.00 | 0.00 | 0.00 | 92 | 1018.3 |
| 20260831084558 | 70 | 221 | 0.0 | 0.0 | 0.00 | 0.00 | 0.00 | 92 | 1018.3 |
| 20260831084056 | 70 | 221 | 0.0 | 0.0 | 0.00 | 0.00 | 0.00 | 92 | 1018.3 |
| 20260831083558 | 70 | 221 | 0.0 | 0.0 | 0.00 | 0.00 | 0.00 | 92 | 1018.2 |
| 20260831083319 | 70 | 221 | 0.0 | 1.0 | 0.00 | 0.00 | 0.00 | 92 | 1018.2 |
| 20260831082556 | 70 | 221 | 0.0 | 1.0 | 0.00 | 0.00 | 0.00 | 92 | 1018.2 |
| 20260831082055 | 70 | 221 | 0.0 | 0.0 | 0.00 | 0.00 | 0.00 | 92 | 1018.3 |
| 20260831081554 | 70 | 221 | 0.0 | 0.0 | 0.00 | 0.00 | 0.00 | 92 | 1018.3 |
| 20260831081056 | 70 | 221 | 0.0 | 0.0 | 0.00 | 0.00 | 0.00 | 92 | 1018.3 |
| 20260831080554 | 70 | 221 | 0.0 | 0.0 | 0.00 | 0.00 | 0.00 | 91 | 1018.3 |
| 20260831080054 | 70 | 221 | 0.0 | 0.0 | 0.00 | 0.00 | 0.00 | 91 | 1018.2 |
| 20260831075556 | 71 | 221 | 0.0 | 0.0 | 0.00 | 0.00 | 0.00 | 91 | 1018.2 |
| 20260831075050 | 71 | 221 | 0.0 | 0.0 | 0.00 | 0.00 | 0.00 | 92 | 1018.2 |
| 20260831074543 | 71 | 221 | 0.0 | 0.0 | 0.00 | 0.00 | 0.00 | 91 | 1018.2 |
| 20260831074037 | 71 | 221 | 0.0 | 0.0 | 0.00 | 0.00 | 0.00 | 91 | 1018.2 |
| 20260831073537 | 71 | 221 | 0.0 | 0.0 | 0.00 | 0.00 | 0.00 | 91 | 1018.2 |
| 20260831073034 | 71 | 221 | 0.0 | 0.0 | 0.00 | 0.00 | 0.00 | 91 | 1018.1 |
| 20260831072534 | 71 | 221 | 0.0 | 0.0 | 0.00 | 0.00 | 0.00 | 91 | 1018.1 |
| 20260831072035 | 71 | 221 | 0.0 | 0.0 | 0.00 | 0.00 | 0.00 | 91 | 1018.1 |
| 20260831071532 | 71 | 221 | 0.0 | 0.0 | 0.00 | 0.00 | 0.00 | 91 | 1018.0 |
| 20260831071306 | 71 | 221 | 0.0 | 0.0 | 0.00 | 0.00 | 0.00 | 91 | 1018.1 |
| 20260831070751 | 71 | 221 | 0.0 | 1.0 | 0.00 | 0.00 | 0.00 | 91 | 1018.1 |
| 20260831070030 | 71 | 221 | 0.0 | 1.0 | 0.00 | 0.00 | 0.00 | 91 | 1018.1 |
| 20260831065531 | 71 | 221 | 0.0 | 0.0 | 0.00 | 0.00 | 0.00 | 91 | 1018.1 |
| 20260831065028 | 71 | 221 | 0.0 | 0.0 | 0.00 | 0.00 | 0.00 | 91 | 1018.1 |
| 20260831064528 | 71 | 221 | 0.0 | 0.0 | 0.00 | 0.00 | 0.00 | 91 | 1018.2 |
| 20260831064027 | 71 | 221 | 0.0 | 0.0 | 0.00 | 0.00 | 0.00 | 91 | 1018.2 |
| 20260831063529 | 71 | 221 | 0.0 | 0.0 | 0.00 | 0.00 | 0.00 | 91 | 1018.2 |
| 20260831063025 | 72 | 221 | 0.0 | 0.0 | 0.00 | 0.00 | 0.00 | 91 | 1018.3 |
| 20260831062524 | 72 | 221 | 0.0 | 0.0 | 0.00 | 0.00 | 0.00 | 91 | 1018.3 |
| 20260831062247 | 72 | 221 | 0.0 | 0.0 | 0.00 | 0.00 | 0.00 | 90 | 1018.3 |
| 20260831061524 | 72 | 221 | 0.0 | 0.0 | 0.00 | 0.00 | 0.00 | 90 | 1018.3 |
| 20260831061025 | 72 | 221 | 0.0 | 0.0 | 0.00 | 0.00 | 0.00 | 90 | 1018.4 |
| 20260831060525 | 72 | 221 | 0.0 | 0.0 | 0.00 | 0.00 | 0.00 | 90 | 1018.5 |
| 20260831060023 | 72 | 221 | 0.0 | 0.0 | 0.00 | 0.00 | 0.00 | 90 | 1018.5 |
| 20260831055754 | 72 | 221 | 0.0 | 0.0 | 0.00 | 0.00 | 0.00 | 90 | 1018.5 |
| 20260831055025 | 72 | 221 | 0.0 | 0.0 | 0.00 | 0.00 | 0.00 | 90 | 1018.6 |
| 20260831055010 | 72 | 221 | 0.0 | 0.0 | 0.00 | 0.00 | 0.00 | 90 | 1018.7 |
| 20260831054020 | 72 | 221 | 0.0 | 0.0 | 0.00 | 0.00 | 0.00 | 89 | 1018.7 |
| 20260831053522 | 72 | 221 | 0.0 | 1.0 | 0.00 | 0.00 | 0.00 | 89 | 1018.7 |
| 20260831053021 | 72 | 221 | 0.0 | 1.0 | 0.00 | 0.00 | 0.00 | 89 | 1018.7 |
| 20260831052520 | 73 | 221 | 0.0 | 0.0 | 0.00 | 0.00 | 0.00 | 89 | 1018.8 |
| 20260831052021 | 73 | 221 | 0.0 | 0.0 | 0.00 | 0.00 | 0.00 | 89 | 1018.7 |
| 20260831051523 | 73 | 221 | 0.0 | 0.0 | 0.00 | 0.00 | 0.00 | 89 | 1018.8 |
| 20260831051021 | 73 | 221 | 0.0 | 0.0 | 0.00 | 0.00 | 0.00 | 89 | 1018.7 |
| 20260831050522 | 73 | 221 | 0.0 | 0.0 | 0.00 | 0.00 | 0.00 | 89 | 1018.8 |
| 20260831050020 | 73 | 221 | 0.0 | 0.0 | 0.00 | 0.00 | 0.00 | 89 | 1018.8 |
| 20260831045526 | 73 | 221 | 0.0 | 0.0 | 0.00 | 0.00 | 0.00 | 89 | 1018.8 |
| 20260831045020 | 73 | 221 | 0.0 | 0.0 | 0.00 | 0.00 | 0.00 | 89 | 1018.9 |
| 20260831044522 | 73 | 221 | 0.0 | 0.0 | 0.00 | 0.00 | 0.00 | 88 | 1018.9 |
| 20260831044237 | 73 | 221 | 0.0 | 0.0 | 0.00 | 0.00 | 0.00 | 89 | 1019.0 |
| 20260831043517 | 73 | 221 | 0.0 | 0.0 | 0.00 | 0.00 | 0.00 | 88 | 1019.0 |
| 20260831043232 | 73 | 221 | 0.0 | 2.0 | 0.00 | 0.00 | 0.00 | 88 | 1018.9 |
| 20260831042730 | 74 | 221 | 0.0 | 2.0 | 0.00 | 0.00 | 0.00 | 88 | 1018.9 |
| 20260831042012 | 74 | 221 | 0.0 | 1.0 | 0.00 | 0.00 | 0.00 | 88 | 1018.9 |
| 20260831041510 | 74 | 221 | 0.0 | 1.0 | 0.00 | 0.00 | 0.00 | 88 | 1018.9 |
| 20260831041007 | 74 | 221 | 0.0 | 1.0 | 0.00 | 0.00 | 0.00 | 87 | 1019.0 |
| 20260831040505 | 74 | 221 | 0.0 | 0.0 | 0.00 | 0.00 | 0.00 | 88 | 1019.0 |
| 20260831035959 | 74 | 221 | 0.0 | 0.0 | 0.00 | 0.00 | 0.00 | 87 | 1018.9 |
| 20260831035500 | 74 | 221 | 0.0 | 0.0 | 0.00 | 0.00 | 0.00 | 87 | 1018.9 |
| 20260831035231 | 74 | 221 | 0.0 | 0.0 | 0.00 | 0.00 | 0.00 | 87 | 1018.9 |
| 20260831034500 | 74 | 221 | 0.0 | 0.0 | 0.00 | 0.00 | 0.00 | 87 | 1018.9 |
| 20260831034000 | 74 | 221 | 0.0 | 0.0 | 0.00 | 0.00 | 0.00 | 87 | 1018.9 |
| 20260831033723 | 74 | 221 | 0.0 | 0.0 | 0.00 | 0.00 | 0.00 | 87 | 1019.0 |
| 20260831033000 | 74 | 221 | 0.0 | 0.0 | 0.00 | 0.00 | 0.00 | 86 | 1019.0 |
| 20260831032500 | 74 | 221 | 0.0 | 0.0 | 0.00 | 0.00 | 0.00 | 86 | 1019.1 |
| 20260831032001 | 74 | 221 | 0.0 | 0.0 | 0.00 | 0.00 | 0.00 | 86 | 1019.1 |
| 20260831031459 | 75 | 221 | 0.0 | 0.0 | 0.00 | 0.00 | 0.00 | 86 | 1019.1 |
| 20260831031212 | 75 | 221 | 0.0 | 0.0 | 0.00 | 0.00 | 0.00 | 86 | 1019.3 |
| 20260831031054 | 75 | 221 | 0.0 | 0.0 | 0.00 | 0.00 | 0.00 | 86 | 1019.2 |
| 20260831030000 | 75 | 221 | 0.0 | 0.0 | 0.00 | 0.00 | 0.00 | 86 | 1019.2 |
| 20260831025500 | 75 | 221 | 0.0 | 0.0 | 0.00 | 0.00 | 0.00 | 86 | 1019.3 |
| 20260831025002 | 75 | 221 | 0.0 | 0.0 | 0.00 | 0.00 | 0.00 | 86 | 1019.5 |
| 20260831024459 | 75 | 221 | 0.0 | 0.0 | 0.00 | 0.00 | 0.00 | 86 | 1019.5 |
| 20260831024001 | 75 | 221 | 0.0 | 0.0 | 0.00 | 0.00 | 0.00 | 86 | 1019.5 |
| 20260831023500 | 75 | 221 | 0.0 | 0.0 | 0.00 | 0.00 | 0.00 | 85 | 1019.5 |
| 20260831023218 | 75 | 221 | 0.0 | 2.0 | 0.00 | 0.00 | 0.00 | 85 | 1019.6 |
| 20260831022503 | 75 | 221 | 0.0 | 2.0 | 0.00 | 0.00 | 0.00 | 85 | 1019.7 |
| 20260831021954 | 75 | 181 | 0.0 | 2.0 | 0.00 | 0.00 | 0.00 | 84 | 1019.8 |
| 20260831021449 | 76 | 350 | 0.0 | 0.0 | 0.00 | 0.00 | 0.00 | 84 | 1019.7 |
| 20260831020943 | 76 | 55 | 0.0 | 0.0 | 0.00 | 0.00 | 0.00 | 84 | 1019.6 |
| 20260831020437 | 76 | 55 | 0.0 | 0.0 | 0.00 | 0.00 | 0.00 | 84 | 1019.6 |
| 20260831015931 | 76 | 55 | 0.0 | 0.0 | 0.00 | 0.00 | 0.00 | 84 | 1019.6 |
| 20260831015431 | 76 | 55 | 0.0 | 0.0 | 0.00 | 0.00 | 0.00 | 84 | 1019.6 |
| 20260831014942 | 76 | 55 | 0.0 | 0.0 | 0.00 | 0.00 | 0.00 | 83 | 1019.6 |
| 20260831014429 | 76 | 55 | 0.0 | 0.0 | 0.00 | 0.00 | 0.00 | 83 | 1019.6 |
| 20260831014152 | 76 | 55 | 0.0 | 0.0 | 0.00 | 0.00 | 0.00 | 83 | 1019.5 |
| 20260831013427 | 76 | 55 | 0.0 | 0.0 | 0.00 | 0.00 | 0.00 | 83 | 1019.5 |
| 20260831013155 | 76 | 55 | 0.0 | 0.0 | 0.00 | 0.00 | 0.00 | 82 | 1019.6 |
| 20260831012426 | 76 | 55 | 0.0 | 0.0 | 0.00 | 0.00 | 0.00 | 82 | 1019.6 |
| 20260831011927 | 77 | 55 | 0.0 | 0.0 | 0.00 | 0.00 | 0.00 | 82 | 1019.7 |
| 20260831011425 | 77 | 55 | 0.0 | 0.0 | 0.00 | 0.00 | 0.00 | 81 | 1019.8 |
| 20260831010926 | 77 | 55 | 0.0 | 0.0 | 0.00 | 0.00 | 0.00 | 80 | 1019.7 |
| 20260831010653 | 77 | 55 | 0.0 | 0.0 | 0.00 | 0.00 | 0.00 | 80 | 1019.7 |
| 20260831010130 | 78 | 55 | 0.0 | 0.0 | 0.00 | 0.00 | 0.00 | 79 | 1019.5 |
| 20260831010019 | 77 | 55 | 0.0 | 0.0 | 0.00 | 0.00 | 0.00 | 80 | 1019.6 |
| 20260831004923 | 78 | 55 | 0.0 | 0.0 | 0.00 | 0.00 | 0.00 | 79 | 1019.3 |
| 20260831004422 | 78 | 55 | 0.0 | 0.0 | 0.00 | 0.00 | 0.00 | 79 | 1019.3 |
| 20260831003920 | 78 | 55 | 0.0 | 0.0 | 0.00 | 0.00 | 0.00 | 78 | 1019.2 |
| 20260831003420 | 78 | 55 | 0.0 | 0.0 | 0.00 | 0.00 | 0.00 | 78 | 1019.2 |
| 20260831002914 | 78 | 55 | 0.0 | 0.0 | 0.00 | 0.00 | 0.00 | 78 | 1019.2 |
| 20260831002637 | 79 | 55 | 0.0 | 0.0 | 0.00 | 0.00 | 0.00 | 78 | 1019.1 |
| 20260831001902 | 79 | 55 | 0.0 | 1.0 | 0.00 | 0.00 | 0.00 | 77 | 1019.1 |
| 20260831001618 | 79 | 55 | 0.0 | 1.0 | 0.00 | 0.00 | 0.00 | 77 | 1019.1 |
| 20260831000850 | 79 | 37 | 0.0 | 0.0 | 0.00 | 0.00 | 0.00 | 77 | 1019.2 |
| 20260831000611 | 79 | 37 | 0.0 | 2.0 | 0.00 | 0.00 | 0.00 | 76 | 1019.1 |
| 20260830235839 | 79 | 37 | 0.0 | 2.0 | 0.00 | 0.00 | 0.00 | 76 | 1019.0 |
| 20260830235333 | 79 | 312 | 0.0 | 1.0 | 0.00 | 0.00 | 0.00 | 75 | 1019.0 |
| 20260830234827 | 80 | 236 | 0.0 | 1.0 | 0.00 | 0.00 | 0.00 | 75 | 1019.0 |
| 20260830234322 | 80 | 236 | 0.0 | 2.0 | 0.00 | 0.00 | 0.00 | 75 | 1019.1 |
| 20260830233814 | 80 | 35 | 0.0 | 2.0 | 0.00 | 0.00 | 0.00 | 74 | 1019.1 |
| 20260830233309 | 80 | 331 | 0.0 | 2.0 | 0.00 | 0.00 | 0.00 | 73 | 1019.2 |
| 20260830232802 | 80 | 304 | 0.0 | 2.0 | 0.00 | 0.00 | 0.00 | 73 | 1019.2 |
| 20260830232256 | 81 | 315 | 0.0 | 2.0 | 0.00 | 0.00 | 0.00 | 72 | 1019.1 |
| 20260830231750 | 81 | 315 | 1.0 | 4.0 | 0.00 | 0.00 | 0.00 | 71 | 1019.0 |
| 20260830231244 | 81 | 265 | 1.0 | 5.0 | 0.00 | 0.00 | 0.00 | 70 | 1018.9 |